Location: Kuffner-Sternwarte
(48.2130°N, 16.2960°E)
Time: 05:32:03
(UTC+02:00)

COROT - Pass Details

Date: 15 August 2018
Orbit: 602 x 886 km, 90.0° (Epoch: 18 October)

Event Time Altitude Azimuth Distance (km) Brightness Sun altitude
Exits shadow 04:25:30 - 178° (S) 2,969 8.7 -12.7°
Reaches altitude 10° 04:27:18 10° 179° (S) 2,245 8.1 -12.5°
Maximum altitude 04:32:16 83° 268° (W) 709 5.8 -11.9°
Drops below altitude 10° 04:36:53 10° 357° (N) 2,089 8.7 -11.2°
Sets 04:39:03 0° 358° (N) 2,971 9.6 -11.0°
